< < Back
Terminal Aerodrome Forecast


Current Version              Previous Versions:   1  2  3  4  5  6  7  8  9  

Terminal Aerodrome Forecast

328
FTUS42 KILM 291730
TAFFLO
TAF
KFLO 291730Z 2918/3018 04008KT P6SM SCT045 BKN250
     FM292000 07008KT P6SM SCT050 BKN250
     FM300100 10004KT P6SM OVC250
     FM301200 00000KT P6SM BKN050=



Latest METAR

753
SAUS70 KWBC 302000 RRC
MTRFLO
METAR KFLO 301953Z AUTO 11007KT 4SM RA BR SCT070 OVC090 23/21 A3014 RMK
AO2 SLP204 P0003 T02330211


USA.gov is the U.S. government's official web portal to all federal, state and local government web resources and services.